Location: Observatory
(52.1446°N, 0.4624°W)
Time: 17:42:45
(UTC+01:00)

ISS - Pass Details

Date: 23 March 2019
Orbit: 408 x 410 km, 51.6° (Epoch: 27 April)

Event Time Altitude Azimuth Distance (km) Brightness Sun altitude
Rises 20:51:02 0° 246° (WSW) 2,332 0.5 -22.6°
Reaches altitude 10° 20:53:08 10° 243° (WSW) 1,472 -0.7 -22.8°
Enters shadow 20:54:18 20° 238° (WSW) 1,013 -1.6 -23.0°
